Location: Unspecified
(44.0704°N, 88.6889°W)
Time: 11:57:47
(UTC+02:00)

Altair - Visible Passes

Search period start: 24 June 2019 00:00
Search period end: 04 July 2019 00:00
Orbit: 1501 x 1683 km, 47.2° (Epoch: 23 June)

Date Brightness Start Highest point End Pass type
(mag) Time Alt. Az. Time Alt. Az. Time Alt. Az.
24 Jun 7.6 04:00:05 10° WSW 04:09:36 85° SSE 04:19:33 10° ENE visible
24 Jun 7.8 06:05:08 10° W 06:14:52 74° N 06:24:58 10° E visible
24 Jun 7.5 08:10:14 10° WNW 08:20:09 83° SSW 08:30:20 10° ESE visible
24 Jun 8.0 10:15:25 10° WNW 10:24:15 37° SW 10:33:12 10° SSE visible
25 Jun 7.8 05:39:56 10° W 05:49:36 74° N 05:59:41 10° E visible
25 Jun 7.5 07:45:03 10° WNW 07:54:56 86° SSW 08:05:07 10° ESE visible
25 Jun 7.9 09:50:09 10° WNW 09:59:08 40° SW 10:08:17 10° SSE visible
26 Jun 7.8 05:14:43 10° W 05:24:22 74° N 05:34:24 10° E visible
26 Jun 7.5 07:19:51 10° WNW 07:29:43 89° SSW 07:39:54 10° ESE visible
26 Jun 7.9 09:24:53 10° WNW 09:34:01 43° SW 09:43:19 10° SSE visible
26 Jun 9.0 11:34:59 10° WSW 11:36:50 11° WSW 11:38:41 10° SW visible
27 Jun 7.8 04:49:31 10° W 04:59:07 75° N 05:09:08 10° E visible
27 Jun 7.6 06:54:40 10° WNW 07:04:30 88° NNE 07:14:40 10° ESE visible
27 Jun 7.8 08:59:39 10° WNW 09:08:54 46° SW 09:18:21 10° SSE visible
27 Jun 8.9 11:08:15 10° W 11:11:49 12° WSW 11:15:25 10° SW visible
28 Jun 7.8 04:24:18 10° W 04:33:53 75° N 04:43:51 10° E visible
28 Jun 7.6 06:29:29 10° WNW 06:39:17 86° NNE 06:49:25 10° ESE visible
28 Jun 7.7 08:34:25 10° WNW 08:43:46 49° SW 08:50:03 23° SSE visible
28 Jun 8.8 10:42:11 10° W 10:46:48 14° WSW 10:47:50 14° SW visible
29 Jun 7.8 03:59:06 10° W 04:08:38 76° N 04:18:35 10° ENE visible
29 Jun 7.6 06:04:18 10° WNW 06:14:03 84° NNE 06:24:10 10° ESE visible
29 Jun 7.7 08:09:12 10° WNW 08:18:38 53° SW 08:24:00 28° SSE visible
29 Jun 8.8 10:16:23 10° W 10:21:46 16° SW 10:21:52 16° SW visible
30 Jun 7.7 05:39:06 10° WNW 05:48:49 82° NNE 05:58:54 10° ESE visible
30 Jun 7.6 07:44:00 10° WNW 07:53:30 56° SW 07:58:38 30° SSE visible
30 Jun 8.7 09:50:43 10° W 09:56:32 18° WSW 09:56:32 18° WSW visible
01 Jul 7.7 05:13:55 10° WNW 05:23:36 80° NNE 05:33:38 10° E visible
01 Jul 7.6 07:18:48 10° WNW 07:28:21 60° SW 07:33:36 30° SSE visible
01 Jul 8.7 09:25:09 10° W 09:31:32 20° SW 09:31:32 20° SW visible
02 Jul 7.7 04:48:45 10° WNW 04:58:22 78° N 05:08:23 10° E visible
02 Jul 7.6 06:53:38 10° WNW 07:03:11 63° SSW 07:08:48 29° SE visible
02 Jul 8.6 08:59:40 10° W 09:06:39 22° SW 09:06:44 22° SW visible
03 Jul 7.8 04:23:33 10° WNW 04:33:08 77° N 04:43:06 10° E visible
03 Jul 7.6 06:28:26 10° WNW 06:38:02 67° SSW 06:44:09 27° SE visible
03 Jul 8.5 08:34:14 10° W 08:41:35 24° SW 08:42:05 24° SW visible
